Regional Weather Roundup
Issued by NWS Upton, NY

Home | Current Version | Previous Version | Text Only | Print | Product List | Glossary On
Versions: 1 2 3 4 5 6 7 8 9 10 11 12 13 14 15 16 17 18 19 20 21 22 23 24 25 26 27
000
ASUS41 KOKX 231208
RWROKX

REGIONAL WEATHER ROUNDUP
NATIONAL WEATHER SERVICE NEW YORK NY
800 AM EDT WED AUG 23 2017

NOTE: "FAIR" INDICATES FEW OR NO CLOUDS BELOW 12,000 FEET WITH NO
SIGNIFICANT WEATHER AND/OR OBSTRUCTIONS TO VISIBILITY.

NYZ071-072-176-178-NJZ106-104-231300-
NEW YORK CITY METRO AREA

CITY           SKY/WX    TMP DP  RH WIND       PRES   REMARKS
Central Park   CLOUDY    74  70  87 VRB3      29.83R
Bronx Bot Gard   N/A    N/A N/A N/A NW5       29.81R
LaGuardia APRT CLOUDY    75  70  84 NW14      29.79R
Kennedy INTL   PTSUNNY   76  73  91 W8        29.80R
Breezy Point     N/A     72 N/A N/A W6          N/A
Newark/Liberty CLOUDY    75  72  90 W7        29.80R
Teterboro      CLOUDY    75  68  78 N10       29.79R
$$

NYZ177-179-078>081-231300-
LONG ISLAND NEW YORK

CITY           SKY/WX    TMP DP  RH WIND       PRES   REMARKS
Jones Beach      N/A     73 N/A N/A W10         N/A
Matinecock PT    N/A     73 N/A N/A W15         N/A
Farmingdale    CLOUDY    74  71  91 NW7       29.79R
MacArthur/ISP  CLOUDY    74  73  97 W7        29.78R
Shirley        CLOUDY    76  74  93 W7        29.79R
Mt Sinai Harb    N/A    N/A N/A N/A SW6         N/A
Westhampton    CLOUDY    74  71  91 W7        29.79R
East Hampton   FAIR      73  71  91 W8        29.77R
Montauk          N/A     73  72  96 CALM      29.78R
$$

NYZ052-065-067-231300-
HUDSON VALLEY

CITY           SKY/WX    TMP DP  RH WIND       PRES   REMARKS
White Plains   PTSUNNY   73  65  75 W13G20    29.79R
Larchmont Harb   N/A     73 N/A N/A W12         N/A
Croton On Huds   N/A     73 N/A N/A NW16        N/A
Newburgh       MOSUNNY   68  64  88 W13       29.82R
Montgomery     MOSUNNY   69  61  75 CALM      29.83R
Poughkeepsie   CLOUDY    71  67  87 CALM      29.79R
Albany         PTSUNNY   65  55  70 W3        29.82R
$$

NJZ001-105-106-008-010-013-015-019>022-104-231300-
NEW JERSEY

CITY           SKY/WX    TMP DP  RH WIND       PRES   REMARKS
Newark/Liberty CLOUDY    75  72  90 W7        29.80R
Teterboro      CLOUDY    75  68  78 N10       29.79R
Caldwell       CLOUDY    71  67  87 VRB5      29.82R
Somerville     CLOUDY    72  68  87 NW8       29.80R
Linden         CLOUDY    74  71  91 CALM      29.81R
Perth Amboy      N/A     73 N/A N/A W9          N/A
Sussex         PTSUNNY   69  61  75 N6        29.85R
Andover          N/A     68  59  73 VRB7      29.86R
Trenton        CLOUDY    74  71  91 NW6       29.82R
Millville      PTSUNNY   77  75  93 W6        29.82R
Atlantic City  CLOUDY    77  73  87 W7        29.81S
Wrightstown    CLOUDY    74  73  96 W5        29.79R
Toms River     NOT AVBL
Belmar         CLOUDY    74  72  93 W7        29.82R
$$

PAZ047>061-062-071-231300-
EASTERN PENNSYLVANIA

CITY           SKY/WX    TMP DP  RH WIND       PRES   REMARKS
Philadelphia   CLOUDY    76  71  85 W5        29.83R
Allentown      MOSUNNY   69  56  62 NW12      29.85R
Scranton       MOSUNNY   67  56  67 NW5       29.89R
$$

CTZ002-004>006-009-010-012-RIZ004-006-007-MAZ004-011-015-231300-
SOUTHERN NEW ENGLAND
 IN CT

CITY           SKY/WX    TMP DP  RH WIND       PRES   REMARKS
Bradley INTL   PTSUNNY   72  65  78 NW8       29.77R
Hartford       PTSUNNY   75  70  84 NW8       29.76R
Danbury        MOSUNNY   74  67  78 W9        29.80R
Wtrbury/Oxford MOSUNNY   70  68  93 VRB6      29.80R
Norwalk Harbor   N/A     73 N/A N/A SW12        N/A
Bridgeport     CLOUDY    75  71  87 W7        29.76R
Meriden        PTSUNNY   74  69  85 CALM      29.76R
New Haven      CLOUDY    74  71  91 VRB3      29.76S
Chester        FAIR      72  72 100 VRB6      29.77R
Groton         CLOUDY    74  72  93 W6        29.75R
Wilimantic     PTSUNNY   74  71  91 VRB5      29.76R

 IN RI

CITY           SKY/WX    TMP DP  RH WIND       PRES   REMARKS
Providence     CLOUDY    74  72  93 W8        29.76R
Block Island   CLOUDY    71  70  96 SW10      29.78R
Westerly       CLOUDY    74  72  93 SW3       29.76R
 IN MA

CITY           SKY/WX    TMP DP  RH WIND       PRES   REMARKS
Boston         CLOUDY    75  71  87 SW12      29.72R
Worcester      MOSUNNY   70  64  81 W12       29.77R
Westfield      PTSUNNY   71  63  75 NW7       29.77R
Provincetown   CLOUDY    72  70  93 SW12      29.74R
Nantucket      CLOUDY    72  72 100 SW13      29.77S FOG
$$

ANZ330-335-338-340-345-350-353-355-231300-
COASTAL MARINE OBSERVATIONS


STATION/POSITION TIME  SKY/WX   TEMP    WIND        PRES    VSBY  WAVE
                                AIR SEA DIR/SP/G                  HT/PER
                 (UTC)          (F)     (DEG/KT/KT) (MB)    (MI)  (FT/S)
NY HARB ENTRANCE 1050            74 75  260/ 10/ 12 1007.7          4/ 7
GREAT SOUTH BAY  1115            75 78  280/ 10/ 12   N/A
23 SSW MONTAUK P 1050            72 71              1007.9          6/ 7
15 E BARNEGAT LI 1130               76                N/A           4/ 6
HUDSON CANYON    1050            76 76  220/ 10/ 12 1008.0          6/ 7
KINGS POINT      1136            75 75  330/  7/  8 1008.6
EXECUTION ROCKS  NOT AVBL
WESTERN LI SOUND NOT AVBL
CENTRAL LI SOUND NOT AVBL
EASTERN LI SOUND NOT AVBL
ROBBINS REEF     1136                   280/ 10/ 11 1009.4
$$


>>>>>>>>>>>>>>>>>>>>>>>>>>>> KEY <<<<<<<<<<<<<<<<<<<<<<<<<<<
>                                                          <
>     SKY/WX - Sky Condition/Present Weather               <
>     TMP    - Temperature in Fahrenheit                   <
>     DP     - Dew Point in Fahrenheit                     <
>     RH     - Relative Humidity in Percent                <
>     WIND   - Direction (from) and Speed in MPH           <
>     PRES   - Mean Sea Level Pressure (inches of Hg)      <
>     WCI    - Wind Chill Index                            <
>     VSB    - VISIBILITY IN MILES                         <
>     HX     - HEAT INDEX                                  <
>     TC     - TEMPERATURE IN CELSIUS                      <
>     VRB    - VARIABLE WIND DIRECTION                     <
>                                                          <
>>>>>>>>>>>>>>>>>>>>>>>>>>>> KEY <<<<<<<<<<<<<<<<<<<<<<<<<<<




USA.gov is the U.S. government's official web portal to all federal, state and local government web resources and services.